TimePST,TemperatureF,Dew PointF,Humidity,Sea Level PressureIn,VisibilityMPH,Wind Direction,Wind SpeedMPH,Gust SpeedMPH,PrecipitationIn,Events,Conditions,WindDirDegrees,DateUTC
12:59 AM,6.8,6.8,100,30.37,10.0,SW,4.6,-,N/A,,Overcast,230,2013-01-13 08:59:00
1:39 AM,14.0,6.8,73,30.27,10.0,SW,4.6,-,N/A,Snow,Light Snow,230,2013-01-13 09:39:00
1:59 AM,15.8,14.0,93,30.39,10.0,SSE,4.6,-,0.00,Snow,Light Snow,150,2013-01-13 09:59:00
2:29 AM,15.8,15.8,100,30.51,7.0,South,4.6,-,N/A,Snow,Light Snow,190,2013-01-13 10:29:00
2:56 AM,15.4,15.4,100,30.40,7.0,SSE,5.8,-,0.00,Snow,Light Snow,160,2013-01-13 10:56:00
3:56 AM,15.8,15.8,100,30.39,8.0,South,2.3,-,0.00,,Overcast,180,2013-01-13 11:56:00
4:34 AM,15.8,15.8,100,30.51,10.0,ESE,2.3,-,N/A,Snow,Light Snow,110,2013-01-13 12:34:00
4:59 AM,15.1,15.1,100,30.40,10.0,East,2.3,-,0.00,Snow,Light Snow,80,2013-01-13 12:59:00
5:56 AM,13.8,13.8,100,30.42,10.0,NNE,2.3,-,0.00,Snow,Light Snow,30,2013-01-13 13:56:00
6:56 AM,14.0,14.0,100,30.46,8.0,NNE,3.5,-,0.00,,Overcast,20,2013-01-13 14:56:00
7:58 AM,14.5,14.5,100,30.48,10.0,NNW,3.5,-,N/A,,Overcast,340,2013-01-13 15:58:00
8:58 AM,14.0,14.0,100,30.49,10.0,North,3.5,-,N/A,,Overcast,360,2013-01-13 16:58:00
9:12 AM,14.0,14.0,100,30.34,10.0,NNW,2.3,-,N/A,,Overcast,330,2013-01-13 17:12:00
9:27 AM,14.0,14.0,100,30.34,10.0,North,1.2,-,N/A,,Overcast,360,2013-01-13 17:27:00
9:42 AM,14.0,14.0,100,30.34,10.0,ENE,2.3,-,N/A,,Scattered Clouds,70,2013-01-13 17:42:00
9:58 AM,13.6,13.6,100,30.49,9.0,ENE,2.3,-,N/A,,Partly Cloudy,70,2013-01-13 17:58:00
10:58 AM,16.3,16.3,100,30.49,10.0,WSW,2.3,-,N/A,,Clear,250,2013-01-13 18:58:00
10:59 AM,15.8,15.8,100,30.34,10.0,Calm,Calm,-,N/A,,Partly Cloudy,0,2013-01-13 18:59:00
11:49 AM,15.8,15.8,100,30.34,10.0,SSE,1.2,-,N/A,,Mostly Cloudy,150,2013-01-13 19:49:00
11:58 AM,16.5,16.5,100,30.49,10.0,Calm,Calm,-,N/A,,Mostly Cloudy,0,2013-01-13 19:58:00
12:03 PM,17.6,17.6,100,30.33,10.0,Calm,Calm,-,N/A,,Mostly Cloudy,0,2013-01-13 20:03:00
12:28 PM,15.8,15.8,100,30.33,10.0,SE,2.3,-,N/A,,Scattered Clouds,130,2013-01-13 20:28:00
12:43 PM,15.8,15.8,100,30.32,9.0,SE,3.5,-,N/A,,Mostly Cloudy,140,2013-01-13 20:43:00
12:48 PM,15.8,15.8,100,30.32,9.0,SE,2.3,-,N/A,,Scattered Clouds,140,2013-01-13 20:48:00
12:53 PM,17.6,17.6,100,30.32,10.0,SE,2.3,-,N/A,,Mostly Cloudy,140,2013-01-13 20:53:00
12:58 PM,16.9,16.9,100,30.48,10.0,ESE,2.3,-,N/A,,Mostly Cloudy,120,2013-01-13 20:58:00
1:00 PM,17.6,17.6,100,30.33,10.0,ESE,2.3,-,N/A,,Mostly Cloudy,120,2013-01-13 21:00:00
1:10 PM,17.6,17.6,100,30.33,10.0,SSE,1.2,-,N/A,,Mostly Cloudy,160,2013-01-13 21:10:00
1:13 PM,17.6,17.6,100,30.33,10.0,Calm,Calm,-,N/A,,Mostly Cloudy,0,2013-01-13 21:13:00
1:18 PM,17.6,17.6,100,30.33,10.0,SE,1.2,-,N/A,,Scattered Clouds,140,2013-01-13 21:18:00
1:58 PM,19.0,19.0,100,30.45,10.0,Calm,Calm,-,N/A,,Clear,0,2013-01-13 21:58:00
2:58 PM,17.8,17.8,100,30.45,10.0,Calm,Calm,-,N/A,,Clear,0,2013-01-13 22:58:00
3:58 PM,15.4,15.4,100,30.47,10.0,SE,2.3,-,N/A,,Mostly Cloudy,130,2013-01-13 23:58:00
4:33 PM,15.8,15.8,100,30.32,10.0,WSW,3.5,-,N/A,,Overcast,250,2013-01-14 00:33:00
4:58 PM,13.8,13.8,100,30.47,10.0,WSW,4.6,-,N/A,,Overcast,240,2013-01-14 00:58:00
5:03 PM,14.0,14.0,100,30.33,10.0,WSW,4.6,-,N/A,,Overcast,240,2013-01-14 01:03:00
5:58 PM,13.1,13.1,100,30.46,10.0,South,3.5,-,N/A,,Overcast,170,2013-01-14 01:58:00
6:58 PM,14.5,14.5,100,30.47,10.0,South,2.3,-,N/A,,Overcast,190,2013-01-14 02:58:00
7:58 PM,13.3,13.3,100,30.47,10.0,ESE,4.6,-,N/A,,Overcast,110,2013-01-14 03:58:00
8:58 PM,14.0,14.0,100,30.47,10.0,Calm,Calm,-,N/A,,Overcast,0,2013-01-14 04:58:00
9:28 PM,14.0,14.0,100,30.33,10.0,South,2.3,-,N/A,,Overcast,180,2013-01-14 05:28:00
9:29 PM,14.0,14.0,100,30.32,10.0,South,2.3,-,N/A,,Overcast,170,2013-01-14 05:29:00
9:58 PM,15.1,15.1,100,30.47,10.0,North,-9999.0,-,N/A,,Overcast,0,2013-01-14 05:58:00
10:33 PM,15.8,15.8,100,30.33,10.0,SSE,4.6,-,N/A,,Overcast,160,2013-01-14 06:33:00
10:42 PM,15.8,15.8,100,30.33,10.0,SSE,4.6,-,N/A,Snow,Light Snow,160,2013-01-14 06:42:00
10:58 PM,15.8,15.8,100,30.47,10.0,SSE,4.6,-,N/A,Snow,Light Snow,160,2013-01-14 06:58:00
11:58 PM,15.8,15.8,100,30.47,10.0,SSE,4.6,-,N/A,Snow,Light Snow,160,2013-01-14 07:58:00